Location: Bodest
(46.3000°N, 22.5667°E)
Time: 19:15:07
(UTC+00:00)

Daily predictions for brighter satellites

Satellite Brightness Start Highest point End
(mag) Time Altitude Azimuth Time Altitude Azimuth Time Altitude Azimuth
Cosmos 2227 Rocket 2.2 16:01:52 10° NNW 16:07:35 82° ENE 16:13:14 10° SSE
Cosmos 1908 4.5 16:07:21 10° SE 16:10:18 21° E 16:13:16 10° NE
Timation 2 Rocket 4.2 16:04:13 10° NNW 16:11:08 69° ENE 16:17:51 10° SE
Cosmos 494 Rocket 4.3 16:07:25 10° NNW 16:12:29 47° ENE 16:17:29 10° SE
CZ-2C R/B 3.2 16:09:20 10° NNE 16:14:34 38° E 16:19:42 10° SSE
Cosmos 1356 3.5 16:11:16 10° N 16:14:36 52° ENE 16:17:54 10° SSE
USA 215 4.1 16:09:25 10° NE 16:15:34 46° NNW 16:21:45 10° W
Landsat 5 4.0 16:13:07 10° NNE 16:17:11 40° E 16:21:21 10° S
SKYMED 2 3.9 16:15:20 10° NNE 16:19:30 45° E 16:23:40 10° S
Aureole 2 4.2 16:18:13 10° NNW 16:21:10 81° WSW 16:24:16 10° SSE
Okean 2 Rocket 4.0 16:17:48 10° SSW 16:22:08 54° WNW 16:26:32 10° N
Cosmos 1726 3.1 16:20:13 10° SSW 16:23:44 50° WNW 16:27:17 10° N
Cosmos 1470 3.2 16:20:52 10° SSW 16:24:49 68° W 16:28:48 10° N
Okean O Rocket 1.6 16:20:41 10° SSE 16:24:56 59° ENE 16:29:14 10° N
Cosmos 2084 Rocket 3.4 16:21:44 10° SW 16:25:36 74° NW 16:29:31 10° NE
SL-19 R/B 4.3 16:21:49 10° NNE 16:27:42 79° ESE 16:33:17 10° SSW
BREEZE-M DEB (TANK) 4.0 16:19:53 10° W 16:29:13 61° N 16:32:05 13° ENE
Cosmos 1758 3.2 16:27:17 10° S 16:31:17 80° E 16:35:17 10° N
YAOGAN 1 3.3 16:28:30 10° SE 16:32:19 31° ENE 16:36:10 10° N
Cosmos 1703 4.0 16:29:06 10° N 16:32:40 32° ENE 16:36:12 10° SE
CZ-4 R/B 2.2 16:29:14 10° SE 16:32:41 29° ENE 16:36:13 10° N
Cosmos 2082 3.7 16:27:05 10° NNW 16:32:42 66° ENE 16:38:17 10° SE
Okean-O 3.9 16:30:27 10° ESE 16:33:43 21° ENE 16:37:01 10° NNE
Cosmos 1727 Rocket 4.0 16:29:28 10° N 16:35:45 80° E 16:41:55 10° SSE
Cosmos 1455 Rocket 3.9 16:32:44 10° SSE 16:36:32 29° E 16:40:21 10° NNE
Spot 2 4.2 16:35:32 10° SE 16:39:25 48° ENE 16:43:29 10° N
Cosmos 2150 Rocket 4.1 16:34:57 10° S 16:40:20 68° ESE 16:45:43 10° NNE
Meteor 1-21 Rocket 4.4 16:35:16 10° N 16:41:01 57° ENE 16:46:48 10° SSE
Cosmos 1953 2.7 16:38:12 10° SSE 16:42:02 42° E 16:45:53 10° NNE
H-2A R/B 3.0 16:39:29 10° NE 16:42:49 23° E 16:46:08 10° SSE
Cosmos 2366 rocket 4.5 16:38:25 10° SSW 16:44:31 65° WNW 16:50:44 10° N
ATLAS 3B R/B 2.7 16:39:46 10° SW 16:46:19 86° NW 16:53:13 10° NE
H-2A R/B 2.6 16:45:40 10° S 16:50:57 66° WSW 16:56:23 10° NNW
CZ-4B R/B 4.0 16:53:18 10° S 16:58:50 59° W 17:04:26 10° NNW
Lacrosse 4 Rocket 3.6 16:57:38 10° NNE 16:59:19 12° NE 16:59:46 12° NE
Cosmos 1300 4.5 16:56:59 10° SE 17:03:17 10° NE 16:57:58 15° SE
Okean 1 Rocket 4.0 16:57:38 10° SSW 17:01:51 51° WNW 17:06:07 10° N
Cosmos 405 Rocket 2.8 16:58:42 10° N 17:02:33 54° ENE 17:06:27 10° SSE
ATLAS 5 CENTAUR R/B 1.9 16:59:01 10° S 17:02:33 35° ESE 17:04:05 26° ENE
COSMO-SKYMED 1 3.2 17:03:22 10° N 17:07:39 58° WNW 17:11:54 10° SSW
Feng Yun 1-1 Rocket 4.2 17:04:23 10° SSE 17:09:53 88° WSW 17:15:34 10° NNW
Cosmos 2369 3.7 17:04:21 10° SSW 17:10:01 86° WNW 17:15:45 10° NNE
Cosmos 1605 Rocket 4.5 17:07:13 10° SSE 17:12:45 36° E 17:18:25 10° NNE
IRS-1C Rocket 4.0 17:10:35 10° SSE 17:15:46 64° ENE 17:20:59 10° N
CZ-4C R/B 4.1 17:16:21 10° N 17:19:41 45° WNW 17:22:54 10° SW
HJ-1C 3.1 17:17:52 22° SSE 17:19:50 81° ENE 17:23:06 10° N
H-2A R/B 2.9 17:16:35 10° S 17:20:58 66° WSW 17:25:14 10° NNW
Cosmos 1892 Rocket 3.8 17:17:10 10° NNW 17:21:38 72° W 17:26:02 10° S
Cosmos 1174 3.6 17:18:29 10° SW 17:21:44 60° NW 17:23:06 28° NNE
SL-08 RB Rocket 3.9 17:17:51 10° S 17:22:21 73° WSW 17:26:57 10° NNW
Cosmos 489 Rocket 4.4 17:17:32 10° NNW 17:23:46 73° ENE 17:29:10 14° SSE
Cosmos 1980 Rocket 2.2 17:18:41 10° SSW 17:24:20 86° WNW 17:30:04 10° NNE
Cosmos 389 Rocket 4.2 17:22:21 10° SW 17:25:28 33° WNW 17:28:36 10° N
Cosmos 2263 Rocket 2.1 17:22:11 10° NNW 17:27:46 72° ENE 17:31:01 25° SE
CSL-04 Debris 4.1 17:26:57 19° SSE 17:30:46 62° ENE 17:36:07 10° N
Cosmos 1269 Rocket 3.9 17:25:45 10° NNW 17:31:04 73° ENE 17:34:01 27° SSE
ARGOS 4.3 17:30:15 10° S 17:35:22 45° W 17:40:34 10° NNW
X-37B 1.3 17:33:17 10° WSW 17:35:50 46° SSW 17:35:50 46° SSW
Cosmos 724 4.2 17:35:38 10° NNW 17:41:38 77° NE 17:43:53 40° SE
Cosmos 1697 Rocket 4.2 17:38:08 10° WSW 17:43:19 36° NW 17:48:32 10° NNE
Cosmos 1626 Rocket 3.3 17:46:41 10° N 17:51:03 80° E 17:51:03 80° E
CSL-04 Rocket 3.6 17:48:32 28° SSE 17:51:35 84° ENE 17:57:11 10° NNW
Cosmos 371 Rocket 3.9 17:46:50 10° S 17:50:04 40° SSE 17:50:04 40° SSE
Iridium 4 Rocket 3.9 17:47:53 10° NNW 17:52:08 54° W 17:56:43 10° SSW
MetOp-A 4.1 17:49:39 19° SSE 17:53:37 83° WSW 17:59:01 10° NNW
Cosmos 2278 4.0 17:48:12 10° SW 17:53:50 69° WNW 17:59:32 10° NNE
CZ-2C R/B 4.3 17:49:43 10° N 17:54:47 36° WNW 17:59:48 10° SW
USA 215 4.3 17:54:42 23° NE 17:57:44 35° N 18:03:31 10° WNW
Cosmos 1934 Rocket 4.2 17:52:00 10° SSW 17:58:06 70° W 18:04:11 10° N
Gbstr 26 Del rocket 4.4 17:51:07 10° WNW 17:58:32 85° SSW 18:01:28 44° SE
Ariane Rocket 4.5 18:00:53 23° NNE 18:00:53 23° NNE 18:03:19 10° N
Cosmos 2344 4.3 17:52:26 10° NW 18:01:15 63° NE 18:05:54 39° ESE
Meteor 1-11 4.3 17:57:34 10° NNW 18:03:09 73° W 18:06:55 21° S
Cosmos 1844 Rocket 3.6 17:58:36 10° NNW 18:02:40 32° NNE 18:02:40 32° NNE
CZ-4 R/B 3.6 18:04:23 10° SSW 18:07:40 25° W 18:11:01 10° NW
Okean-O 3.5 18:07:42 25° SSW 18:09:54 47° W 18:14:11 10° NNW
SL-16 R/B 3.0 18:05:32 10° SSW 18:08:50 36° S 18:08:50 36° S
H-2A R/B 3.6 18:15:09 10° N 18:18:50 33° WNW 18:22:32 10° SW
Resurs 01 Rocket 4.2 18:26:21 12° N 18:26:21 12° N 18:26:39 10° N
ATLAS 3B R/B 4.3 18:32:20 10° W 18:37:59 28° NNW 18:43:19 12° NNE
Lacrosse 4 Rocket 3.6 18:34:33 10° NNW 18:36:03 21° NNW 18:36:03 21° NNW
Cosmos 839 Rocket 4.2 18:35:48 10° NW 18:43:33 78° WSW 18:43:48 77° SW
ATLAS 5 CENTAUR R/B 3.6 18:43:33 10° W 18:45:39 24° WNW 18:45:39 24° WNW
CENTAUR R/B 4.5 18:59:13 10° NW 19:05:10 24° NNE 19:06:08 24° NNE
Cosmos 2263 Rocket 4.4 19:07:22 10° WNW 19:11:02 18° W 19:12:46 16° WSW
USA 215 4.4 19:42:03 36° NNW 19:42:03 36° NNW 19:46:07 10° NW
